Lid_Strength_Index
8 11 13 11 10 10 11 13 13 11 10 12 13 13 11 10 11 11 10 10 10 9 6 4 3 3 3 3 3 2 2 1 1 2 2 2 1 1 1 1 1 1 0 -0
11 13 10 9 9 10 11 13 13 12 11 12 12 12 11 10 9 10 10 10 9 9 9 6 4 3 3 3 3 3 2 1 1 1 1 1 1 1 1 0 1 1 1 -0
12 11 8 9 10 12 12 13 13 13 12 12 14 15 13 10 9 8 8 9 9 9 8 8 6 4 3 3 3 2 2 2 1 1 1 2 2 2 2 1 1 1 1 1
11 8 10 11 12 11 15 10 11 13 15 16 14 18 16 14 12 10 8 9 9 7 8 7 7 5 3 3 2 2 2 2 2 1 1 2 2 3 1 1 0 0 1 1
12 11 11 12 12 10 12 10 12 12 15 16 16 17 16 14 14 12 10 9 8 8 7 6 7 7 4 3 3 2 2 2 2 2 1 1 2 1 1 1 1 1 1 1
11 8 9 10 9 9 9 12 13 13 15 19 16 16 17 15 13 13 11 10 9 9 9 8 7 7 6 4 3 2 2 2 2 2 2 2 2 2 2 2 2 1 1 1
11 11 10 8 11 10 10 13 19 20 19 20 16 17 15 13 12 12 13 11 11 10 10 9 9 9 8 5 4 3 3 2 2 2 2 2 2 2 2 2 1 1 1 1
16 18 11 9 11 13 12 13 19 23 21 20 18 19 16 11 10 10 10 11 11 11 11 11 10 10 9 8 4 3 3 2 3 2 2 2 2 2 2 1 1 1 1 1
16 16 9 10 9 10 12 14 14 19 23 21 19 16 13 12 12 12 12 11 11 11 10 11 9 11 11 10 8 4 4 3 3 3 2 2 2 2 2 2 1 1 1 1
13 17 11 12 10 11 11 11 15 16 22 24 20 19 17 15 13 12 12 11 11 11 11 11 11 11 11 11 10 9 6 4 4 4 3 2 2 2 1 1 1 1 1 1
12 14 15 13 13 13 14 13 14 14 18 21 22 20 15 13 11 11 12 12 12 12 12 11 11 11 10 10 10 10 10 10 9 8 6 4 4 3 2 2 2 2 1 2
13 14 17 14 14 12 13 13 13 16 18 17 18 18 13 12 11 11 13 13 13 12 11 11 11 11 11 10 10 10 10 10 9 9 9 8 7 4 3 2 2 2 2 3
13 15 18 17 14 12 13 12 11 13 15 17 18 18 12 13 13 12 13 12 12 12 12 11 11 11 11 11 10 10 10 9 9 9 9 8 8 6 5 4 4 3 2 3
11 14 15 17 16 13 14 13 11 13 17 17 14 14 14 14 13 13 12 12 13 12 12 12 12 12 11 11 10 10 10 9 8 8 8 8 8 7 7 5 5 6 4 4
12 15 15 13 13 12 13 13 12 13 12 15 13 14 13 13 13 13 13 13 12 11 11 12 12 11 11 11 10 10 10 9 9 8 9 9 9 8 8 7 6 6 6 6
12 17 15 17 13 12 14 12 12 11 11 12 13 15 12 12 13 13 12 12 12 12 11 11 11 11 11 11 10 10 10 10 9 9 9 9 10 10 9 9 8 9 9 8
15 16 16 20 16 15 17 13 12 12 11 12 14 12 12 12 11 12 12 12 12 11 11 11 11 10 10 10 9 9 9 9 8 9 9 10 10 11 11 11 10 10 10 10
14 15 17 19 16 21 16 11 10 11 11 10 11 11 11 11 11 11 11 11 11 11 10 10 10 9 9 9 9 8 8 9 9 10 11 11 11 12 11 11 11 11 11 11
11 14 18 19 19 19 16 14 12 13 13 10 11 10 11 12 13 12 11 10 10 10 10 10 9 9 9 9 9 9 10 11 11 11 11 12 12 13 11 12 12 12 13 12
13 12 16 22 22 22 16 14 11 12 16 12 11 10 10 11 14 11 10 10 11 10 10 10 10 10 10 11 12 11 12 12 12 12 12 12 13 12 12 12 13 14 13 13
15 15 16 20 25 20 15 14 11 18 17 12 11 10 10 12 10 11 11 11 11 11 11 11 11 12 12 13 12 12 12 12 12 12 12 13 14 13 12 13 14 14 14 14
16 16 17 24 25 19 14 14 14 13 13 13 12 11 11 10 11 11 11 11 11 12 12 13 13 13 14 14 13 13 13 13 14 15 15 16 17 14 13 13 13 14 14 14
18 14 16 15 16 14 14 11 11 11 12 12 12 12 11 11 12 12 12 12 12 13 14 14 14 14 15 15 15 14 14 14 16 17 18 18 18 13 13 13 13 14 13 13
17 15 15 16 15 14 13 13 11 11 11 12 12 12 11 11 12 12 13 13 14 14 14 16 15 16 16 17 16 16 16 16 19 20 18 17 18 14 13 13 13 13 13 14
15 14 17 17 16 15 13 12 10 11 12 12 12 12 11 12 13 13 14 15 15 15 16 16 16 17 18 18 18 19 17 17 14 19 18 17 17 14 14 14 13 14 13 12
15 14 13 15 14 13 12 10 11 12 12 12 12 13 13 12 13 14 15 15 15 16 17 17 18 18 20 20 17 16 20 19 19 19 19 19 19 16 15 15 15 12 11 11